Theta_e
306 304 306 307 306 306 307 308 308 306 302 299 299 305 307 311 310 308 309 310 313 311 311 312 313 312 311 309 309 307 311 311 311 312 309 310 311 310 309 309 309 309 318 314 311
306 304 304 303 303 304 305 306 306 303 300 299 300 306 307 312 313 310 309 309 310 311 311 311 311 311 309 310 309 308 307 312 311 312 313 311 311 310 311 309 309 310 310 310 310
305 303 302 301 302 302 303 303 301 299 298 299 303 307 309 312 311 310 309 310 311 312 311 311 311 312 312 310 310 311 308 313 311 313 312 312 312 310 310 311 309 309 310 311 311
304 303 304 302 302 302 301 300 300 299 299 300 305 308 311 312 315 310 309 309 310 311 311 311 310 312 312 313 311 311 312 313 313 312 313 313 311 312 310 310 308 308 309 309 309
304 304 304 305 302 301 300 299 298 298 299 302 306 310 313 309 309 310 309 308 309 310 311 311 312 312 313 313 312 313 313 312 311 312 312 311 311 312 310 308 306 307 307 307 307
304 305 305 305 304 301 300 299 298 299 299 304 307 312 312 313 310 310 310 311 310 310 311 311 312 312 312 314 313 312 312 311 312 312 312 312 310 311 310 307 307 307 306 306 306
305 306 305 305 304 301 299 298 298 300 302 305 308 313 310 309 310 310 310 311 311 311 311 311 312 311 311 314 311 312 313 310 311 312 313 310 313 313 309 307 307 305 305 305 305
307 307 306 306 305 301 299 298 300 302 304 306 311 312 310 309 309 309 310 311 311 312 311 312 312 311 312 311 309 310 309 312 311 312 312 310 311 312 308 307 306 305 305 305 304
307 307 307 306 305 302 299 299 301 305 306 308 311 309 311 308 309 309 310 310 311 312 313 312 312 311 309 309 307 307 311 313 311 312 313 311 313 313 306 306 307 306 306 305 306
306 307 306 306 305 301 298 303 302 305 309 309 309 308 307 308 308 309 310 310 310 310 311 313 308 306 306 306 306 308 311 312 312 311 313 313 314 309 307 307 307 307 306 306 307
304 306 305 306 305 300 300 306 304 305 305 307 307 307 308 308 309 310 310 310 310 310 310 311 309 306 308 311 310 311 312 310 310 310 314 314 314 309 307 307 308 308 306 307 307
306 305 305 306 305 299 304 304 302 303 299 304 305 306 307 308 310 309 309 310 310 311 310 307 312 309 308 309 311 311 308 308 308 310 315 313 311 308 306 308 308 307 307 307 307
306 306 305 306 303 300 302 303 303 304 304 306 306 307 308 308 309 310 309 310 310 310 309 309 309 308 308 308 311 308 304 303 310 310 313 310 307 308 306 306 307 306 306 305 306
306 305 306 306 299 301 300 301 303 304 302 305 306 307 307 307 310 308 308 309 311 310 309 308 307 307 307 308 308 308 308 309 311 312 310 310 307 299 304 307 307 307 306 305 304
306 305 306 305 302 301 301 299 302 303 321 307 307 305 306 309 309 309 307 309 311 311 308 306 308 307 308 309 307 306 310 309 310 312 315 306 313 301 304 305 306 306 306 304 304
306 305 306 303 299 302 298 302 303 311 314 306 305 305 307 307 308 308 308 307 307 309 308 308 306 307 306 307 306 306 309 310 312 313 306 302 304 302 301 305 305 304 303 303 303
306 306 305 301 299 301 300 302 308 309 305 306 306 307 308 308 309 308 309 310 310 306 310 307 308 307 307 307 306 307 307 302 301 304 309 307 305 303 303 306 306 304 300 300 301
306 306 304 301 302 299 303 301 308 304 302 304 306 306 308 306 307 308 308 307 308 307 306 307 306 308 307 307 307 309 308 304 300 310 308 308 308 306 305 302 305 300 298 298 298
306 306 302 301 302 301 299 301 304 303 303 306 306 306 304 307 307 307 307 307 307 307 305 309 309 307 306 306 306 308 308 307 310 303 310 308 308 306 305 302 299 298 297 296 296
305 301 301 301 300 300 300 302 296 301 304 304 306 304 304 303 306 306 306 304 307 307 306 308 307 306 306 307 307 308 306 308 305 304 306 308 309 308 307 304 299 297 297 297 296
303 303 302 301 299 299 300 293 299 299 303 304 303 304 304 305 303 306 305 305 305 306 306 306 304 304 306 308 307 308 309 308 306 308 312 311 307 302 305 303 298 296 297 297 296
301 303 301 299 298 293 299 293 299 298 302 303 302 303 303 304 303 304 305 304 304 304 306 306 305 304 305 304 304 306 308 307 307 306 307 309 307 303 303 300 296 296 296 296 296
301 299 300 298 300 296 294 295 295 298 302 302 303 302 302 304 304 305 304 304 303 305 306 304 297 294 299 302 304 308 307 307 306 306 308 307 305 300 299 298 296 295 295 295 295
299 300 298 298 294 298 296 296 295 295 299 301 300 302 302 304 302 304 306 304 304 305 307 304 301 300 302 305 304 307 305 306 307 305 307 307 306 304 299 297 295 294 294 294 294
298 300 298 300 300 297 297 298 296 296 298 299 301 302 303 303 304 305 304 304 303 306 304 303 299 300 303 303 304 305 305 305 307 307 307 304 304 303 301 297 295 294 294 293 294
299 298 296 293 299 299 298 298 297 297 298 299 299 301 301 303 302 303 304 303 303 303 303 301 296 297 296 299 300 301 303 303 304 305 305 306 306 301 301 294 293 294 294 294 294
300 299 301 299 300 299 301 296 297 297 297 298 299 300 301 300 300 300 301 300 301 303 302 302 295 291 293 293 291 296 297 299 302 302 304 305 305 302 301 298 296 295 294 294 293
Wind_Speed
6 8 9 10 11 12 13 14 14 15 14 15 13 11 9 6 9 8 7 7 10 15 15 12 6 7 3 4 4 3 4 1 2 4 5 5 6 4 4 3 4 8 5 10 27
7 8 8 9 10 12 13 14 15 15 14 14 12 10 8 5 4 12 11 11 12 15 12 13 7 11 4 4 4 4 3 2 0 0 3 4 1 4 6 8 6 13 19 26 21
7 8 9 9 10 11 12 14 15 15 14 13 10 9 8 3 1 4 13 11 13 14 9 8 2 2 5 5 5 2 3 1 3 1 3 4 5 4 5 3 5 10 13 17 19
6 8 9 10 10 11 12 13 14 14 14 11 9 9 4 2 0 6 11 12 11 14 7 10 6 4 4 3 4 3 3 1 2 3 3 5 5 3 8 3 6 7 10 9 13
6 7 9 11 11 12 13 13 14 14 13 9 8 9 1 4 0 7 8 10 7 8 15 3 6 2 5 1 3 3 3 5 5 2 1 1 6 3 5 6 7 9 12 12 11
6 7 10 11 12 13 13 14 14 14 10 7 8 5 1 1 1 5 7 10 13 10 12 9 3 0 5 3 3 1 2 5 3 5 1 4 5 4 6 7 9 13 14 13 12
8 9 11 13 13 14 13 14 14 10 6 5 6 5 3 3 2 4 4 6 9 9 3 6 4 2 2 3 3 1 3 4 4 6 3 5 3 2 5 7 11 13 14 16 17
10 11 11 14 14 15 14 14 10 6 5 4 4 3 1 1 1 5 4 3 5 6 4 5 3 4 3 1 4 4 4 3 2 7 3 4 5 3 9 10 11 13 14 16 17
13 12 13 13 15 15 15 13 6 3 3 2 2 3 0 0 1 3 4 3 3 4 4 3 2 3 4 4 4 6 1 2 6 1 3 5 4 5 7 7 13 15 14 16 15
14 11 11 12 14 15 15 9 3 2 1 1 2 2 2 1 2 2 2 3 3 3 2 4 4 3 4 4 2 2 1 2 4 4 4 3 2 7 7 10 14 12 14 13 14
16 15 13 12 12 12 14 2 3 1 2 2 0 1 1 4 2 1 2 2 2 4 3 3 5 2 1 1 3 2 1 3 4 3 3 3 1 5 7 11 13 14 13 12 15
14 13 11 11 10 9 6 2 2 1 3 2 2 2 1 1 1 1 2 2 3 2 1 4 1 3 1 3 3 3 1 4 5 4 3 3 5 3 5 6 12 12 12 12 14
14 12 12 10 8 3 1 3 2 1 0 2 2 1 1 1 1 2 2 1 2 2 1 2 1 2 0 2 1 2 4 2 5 5 2 4 3 4 3 5 12 11 11 13 14
15 13 11 7 4 3 2 4 2 1 4 2 1 0 1 1 1 0 2 2 1 1 0 3 1 1 1 2 3 3 5 4 3 3 2 4 4 4 5 5 10 12 12 13 15
15 14 12 10 1 3 3 4 3 1 3 2 1 1 2 1 1 1 2 2 2 2 2 1 2 0 2 2 2 5 4 3 2 3 1 4 1 6 5 5 8 10 11 11 12
17 15 14 9 6 4 6 5 2 5 6 3 2 3 2 1 1 1 2 3 2 1 0 4 2 2 3 1 3 3 2 4 1 0 3 2 4 5 2 4 6 6 7 8 11
19 16 16 8 3 11 9 2 4 3 3 3 4 4 2 3 2 2 1 1 2 2 2 2 1 2 2 2 1 5 4 3 4 4 4 4 2 7 4 2 2 6 7 7 6
22 17 16 11 7 14 7 4 4 2 6 2 3 3 4 5 2 2 3 1 2 3 1 3 4 3 1 1 1 2 3 4 4 2 4 2 4 4 4 5 2 2 4 6 6
27 21 11 13 12 13 3 3 8 7 6 10 3 3 2 2 3 2 6 4 5 6 6 3 3 0 1 2 2 1 2 0 2 3 1 3 4 6 5 5 1 2 4 5 6
27 15 7 17 14 6 3 9 5 4 5 3 8 5 7 4 5 5 6 3 5 4 3 3 1 1 0 2 2 2 3 3 3 2 4 4 4 4 6 7 6 4 2 2 4
19 5 12 20 15 2 5 7 6 5 4 6 7 5 5 7 7 5 6 2 4 5 3 3 2 2 1 3 5 1 1 2 3 4 3 3 5 5 8 8 9 7 5 1 3
10 4 22 28 3 0 6 6 3 5 2 3 4 3 7 8 6 5 8 3 7 7 6 2 3 3 5 0 1 1 3 4 3 4 3 1 6 2 6 7 8 7 6 4 2
8 3 14 8 8 4 2 3 3 5 6 7 7 5 3 7 4 4 4 0 6 6 7 6 0 2 6 5 3 3 5 4 3 2 5 4 5 1 3 4 6 8 6 5 5
5 5 3 5 2 14 7 5 5 3 4 5 5 4 4 3 1 6 4 2 4 3 6 5 3 5 5 3 2 4 4 6 5 3 3 7 3 5 7 8 7 7 8 6 5
4 5 6 8 12 6 10 11 9 6 4 4 4 7 8 5 4 5 4 3 2 5 3 4 4 2 4 6 3 5 6 8 11 8 7 4 8 7 10 13 11 8 7 7 6
6 5 3 3 16 16 13 13 16 6 10 7 4 12 8 7 8 9 8 5 5 3 5 2 1 2 4 3 3 6 13 15 15 13 14 14 21 8 4 6 8 10 9 8 8
7 7 5 13 16 17 17 8 17 11 5 4 14 8 9 7 5 2 3 6 9 9 6 6 5 3 5 4 6 9 14 19 9 7 18 16 13 5 5 8 11 12 12 10 8
Wind_Direction
350 354 354 351 348 348 346 346 345 345 344 347 349 354 360 27 38 54 39 350 331 346 349 348 16 38 44 53 44 107 64 141 2 3 294 337 8 315 284 293 337 0 354 305 323
335 344 347 348 348 347 345 343 342 343 344 346 349 353 356 352 10 38 2 357 351 349 353 11 1 355 34 31 17 71 99 140 225 100 303 279 328 318 359 344 349 342 347 346 356
322 335 341 342 344 344 343 341 341 342 342 344 348 350 348 351 42 344 358 358 359 358 346 357 335 34 55 25 1 14 125 190 201 324 314 312 349 336 359 30 356 324 335 357 356
310 327 339 340 339 340 339 338 338 337 339 340 345 346 353 38 161 347 357 355 1 8 43 22 36 52 71 53 339 86 29 83 279 316 320 328 320 28 66 309 313 331 330 344 358
296 322 333 341 340 336 336 336 335 335 336 340 345 349 54 50 70 358 2 8 5 22 36 43 55 100 105 64 46 62 346 332 318 295 359 305 307 195 24 346 340 345 354 352 348
282 314 329 334 336 334 333 334 334 333 336 343 350 355 17 95 53 2 14 23 30 31 37 38 76 34 99 83 88 349 307 286 305 322 54 8 4 84 337 334 3 3 349 342 341
275 302 317 328 332 332 331 332 333 338 346 350 357 3 46 150 34 4 4 28 24 27 48 43 23 75 125 78 1 26 51 352 3 343 350 315 34 37 292 346 10 357 348 338 334
270 292 304 317 328 329 327 330 332 340 342 352 3 8 108 71 25 11 17 54 29 33 57 31 22 104 73 151 27 53 56 33 314 356 321 9 308 346 17 10 356 354 343 338 326
266 270 284 303 319 325 325 327 322 333 347 346 14 38 86 82 358 0 8 2 359 13 32 15 57 76 42 77 33 12 56 356 325 84 325 44 290 50 17 1 347 337 336 337 323
250 257 272 292 314 322 324 323 323 325 23 24 44 41 336 254 323 339 8 0 41 338 32 48 50 64 34 56 176 242 50 291 261 300 357 319 351 13 357 357 344 336 337 335 331
245 252 264 283 308 322 332 2 20 326 28 157 187 254 306 312 311 33 2 4 24 52 47 3 70 115 207 164 147 157 216 268 261 264 299 285 40 4 350 1 346 345 341 333 333
244 241 249 270 299 316 327 61 126 183 319 222 236 267 249 347 340 320 4 70 46 60 2 18 104 210 196 192 189 207 146 289 288 265 242 355 327 307 0 354 356 348 346 353 336
234 242 234 257 289 288 9 140 125 129 145 266 203 192 208 143 230 245 36 107 96 78 43 168 186 162 89 296 76 210 170 215 228 306 68 315 18 333 352 356 13 7 358 352 350
225 226 221 238 269 185 216 174 143 126 58 226 224 70 125 146 283 18 49 89 88 122 264 230 337 156 319 250 125 302 193 172 262 340 315 6 293 305 330 333 17 7 2 352 351
219 213 207 215 219 193 161 163 154 217 330 103 174 113 107 153 144 341 33 46 153 163 111 244 172 256 288 231 150 235 166 240 225 258 82 353 357 267 334 331 337 359 354 356 357
205 207 202 208 222 199 160 150 144 44 255 178 123 165 119 132 180 127 74 61 72 43 94 245 321 201 228 267 193 296 305 33 350 257 35 233 115 284 289 263 310 308 332 348 349
192 200 200 197 210 177 157 132 46 163 357 216 194 162 158 170 179 149 99 80 146 63 250 350 228 262 213 2 116 45 50 342 354 7 220 149 79 247 243 291 251 304 337 345 338
184 192 197 207 197 167 152 61 170 230 213 141 146 118 176 159 225 149 110 252 196 125 139 174 313 188 178 120 164 42 118 147 258 273 279 142 227 256 182 93 167 322 350 354 351
177 178 191 200 179 172 98 133 204 201 169 152 79 138 259 211 172 164 187 196 194 169 172 156 277 71 94 106 120 109 95 172 89 332 325 260 286 299 166 140 126 322 6 5 0
154 153 192 190 174 163 92 221 222 203 139 126 173 165 175 201 173 194 189 206 176 161 143 186 303 235 155 106 84 142 157 56 20 358 295 283 265 241 222 200 173 220 273 3 14
146 142 174 177 155 75 198 229 220 222 160 159 188 150 190 172 183 203 193 205 168 150 135 134 137 264 152 195 181 85 102 106 136 158 237 303 266 211 220 184 173 196 199 177 71
132 162 169 156 150 219 197 198 241 180 147 179 135 135 177 162 168 213 201 217 162 147 159 152 143 224 214 330 312 145 235 165 145 218 233 248 270 309 214 181 157 185 183 160 141
139 109 174 189 202 202 281 272 253 168 189 170 198 210 173 170 157 185 186 351 154 151 158 171 318 4 349 1 3 207 191 205 113 76 211 154 261 47 129 187 179 165 197 178 166
118 139 144 206 173 187 166 221 212 242 219 156 171 137 130 148 230 171 145 173 158 131 134 113 142 190 193 171 143 211 203 196 171 156 211 229 250 243 208 212 207 189 180 191 190
147 185 176 185 197 171 193 179 176 178 226 180 216 205 168 147 127 173 150 124 43 152 112 131 194 174 256 240 226 238 220 207 209 209 202 242 224 225 220 205 204 191 172 173 188
151 149 141 157 173 184 194 199 186 191 159 213 187 187 188 159 182 185 142 176 184 149 149 144 212 85 300 353 250 260 239 231 231 227 252 259 271 212 249 132 164 198 187 185 183
151 132 159 165 174 184 205 179 198 154 228 197 192 161 195 194 149 102 106 136 155 146 156 147 133 96 265 348 328 297 240 214 213 200 218 231 243 145 194 200 197 198 197 197 182